This is the latest recevied weather packets stored in our database for station/object KA7EII-13. If no packets are shown the sender has not sent any weather packets the latest 10 day(s).
| Time | Temp. | Humidity | Pressure | Rain* | Wind** | Luminosity | Snow |
|---|---|---|---|---|---|---|---|
| 1777903119 | 7.22° C | 68% | 1099.1 hPa | 0 mm | - | 40 W/m² | - |
| 1777902816 | 6.67° C | 69% | 1099.1 hPa | 0 mm | - | 38 W/m² | - |
| 1777902514 | 6.67° C | 72% | 1099.4 hPa | 0 mm | - | 36 W/m² | - |
| 1777902210 | 6.11° C | 72% | 1099 hPa | 0 mm | - | 35 W/m² | - |
| 1777901908 | 6.11° C | 75% | 1099.1 hPa | 0 mm | - | 32 W/m² | - |
| 1777901606 | 6.11° C | 75% | 1099 hPa | 0 mm | - | 32 W/m² | - |
| 1777901303 | 5.56° C | 76% | 1099.1 hPa | 0 mm | - | 30 W/m² | - |
| 1777901000 | 5.56° C | 78% | 1099 hPa | 0 mm | - | 29 W/m² | - |
| 1777900698 | 5° C | 80% | 1099.1 hPa | 0 mm | - | 27 W/m² | - |
| 1777900394 | 4.44° C | 82% | 1099.2 hPa | 0 mm | - | 26 W/m² | - |
| 1777900091 | 3.89° C | 83% | 1098.9 hPa | 0 mm | - | 23 W/m² | - |
| 1777899788 | 3.89° C | 86% | 1099.1 hPa | 0 mm | - | 22 W/m² | - |
| 1777899485 | 3.89° C | 86% | 1099.1 hPa | 0 mm | - | 20 W/m² | - |
| 1777899183 | 3.33° C | 86% | 1099 hPa | 0 mm | - | 17 W/m² | - |
| 1777898880 | 3.89° C | 88% | 1098.9 hPa | 0 mm | - | 15 W/m² | - |
| 1777898577 | 3.33° C | 85% | 1098.9 hPa | 0 mm | - | 13 W/m² | - |
| 1777898274 | 3.33° C | 85% | 1099 hPa | 0 mm | - | 10 W/m² | - |
| 1777897971 | 3.33° C | 84% | 1098.9 hPa | 0 mm | - | 8 W/m² | - |
| 1777897667 | 3.33° C | 84% | 1098.8 hPa | 0 mm | - | 5 W/m² | - |
| 1777897364 | 3.89° C | 84% | 1098.8 hPa | 0 mm | - | 3 W/m² | - |
| 1777897060 | 3.89° C | 85% | 1098.6 hPa | 0 mm | - | 0 W/m² | - |
| 1777896757 | 3.89° C | 85% | 1098.9 hPa | 0 mm | - | 0 W/m² | - |
| 1777896454 | 3.89° C | 86% | 1098.8 hPa | 0 mm | - | 0 W/m² | - |
| 1777896151 | 4.44° C | 87% | 1099 hPa | 0 mm | - | 0 W/m² | - |
| 1777895849 | 4.44° C | 86% | 1099 hPa | 0 mm | - | 0 W/m² | - |
* Rain latest hour (hover to see other rain measurements)
** Current wind speed in m/s (hover to see current wind gust speed)